#timestamp,LO_Frequency,Hit,StdDev 
1503882015.2,286047002.8,N,1.2
1503882035.1,286047002.7,N,1.2
1503882036.0,286047002.7,N,1.2
1503882055.8,286047002.1,N,1.1
1503882075.7,286047002.6,N,1.1
1503882095.5,286047001.8,N,1.1
1503882115.3,286047004.4,Y,0.0
1503882135.2,286047000.7,P,0.5
1503882155.9,286047000.2,N,0.7
1503882175.7,286047000.3,N,0.6
1503882195.6,286047000.5,N,0.6
1503882215.4,286047000.0,N,0.6
1503882235.2,286047000.2,N,0.6
1503882255.1,286047000.6,N,0.5
1503882256.0,286042750.9,Y,0.0
1503882275.8,286047000.8,P,0.1
1503882295.6,286047000.3,N,0.2
1503882315.5,286047000.1,N,0.3
1503882335.3,286047000.1,N,0.3
1503882355.1,286047000.0,N,0.3
1503882375.9,286046999.7,N,0.3
1503882395.7,286047002.2,Y,0.0
1503882415.5,286047000.2,P,0.0
1503882435.4,286047002.8,P,1.2
1503882455.2,286047002.4,N,1.2
1503882475.0,286046999.8,N,1.3
1503882475.9,286046999.8,N,1.2
1503882495.8,286047002.7,N,1.3
1503882515.6,286047000.0,N,1.3
1503882535.4,286047000.4,N,1.2
1503882555.3,286046999.8,N,1.2
1503882575.1,286046999.7,N,1.2
1503882595.8,286047000.5,N,1.1
1503882615.7,286047002.4,N,1.2
1503882635.5,286047002.5,N,1.2
1503882655.3,286047002.8,N,1.3
1503882675.2,286047001.9,N,1.2
1503882695.0,286046999.7,N,1.3
1503882695.9,286046999.7,N,1.3
1503882715.7,286047002.2,N,1.3
1503882735.6,286047001.8,N,1.2
1503882755.4,286047001.5,N,1.2
1503882775.3,286047003.9,Y,0.0
1503882795.1,286047001.6,P,0.3
1503882796.0,286047001.6,P,0.2
1503882815.8,286047002.0,P,0.3
1503882835.7,286047002.0,Y,0.0
1503882855.5,286047000.9,P,0.3
1503882875.3,286046998.2,P,1.5
1503882895.2,286046998.5,N,1.5
1503882915.9,286047000.7,N,1.4
1503882935.7,286046998.7,N,1.3
1503882955.6,286046998.3,N,1.3
1503882975.4,286046999.4,N,1.2
1503882995.2,286046998.7,N,1.2
1503883015.1,286047000.8,N,1.2
1503883016.0,286047000.8,N,1.2
1503883035.8,286046998.5,N,1.2
1503883055.6,286047000.5,N,1.2
1503883075.5,286047000.3,N,1.2
1503883095.3,286047002.3,N,1.3
1503883115.1,286046999.9,N,1.2
1503883135.9,286047000.2,N,1.2
1503883155.7,286047000.1,N,1.2
1503883175.5,286047000.6,N,1.2
1503883195.4,286047000.9,N,1.1
1503883215.2,286047000.2,N,1.1
1503883235.0,286046999.8,N,1.1
1503883235.9,286046999.8,N,1.1
1503883255.8,286047000.2,N,1.0
1503883275.6,286047000.2,N,1.0
1503883295.4,286047000.2,N,1.0
1503883315.3,286046999.9,N,1.0
1503883335.1,286047000.0,N,1.0
1503883355.8,286046998.1,N,1.0
1503883375.7,286047002.7,N,1.1
1503883395.5,286047002.8,N,1.2
1503883415.3,286046999.7,N,1.2
1503883435.2,286047000.3,N,1.1
1503883455.0,286047002.7,N,1.2
1503883455.9,286047002.7,N,1.3
1503883475.7,286047000.2,N,1.2
1503883495.6,286046999.9,N,1.2
1503883515.4,286047002.6,N,1.2
1503883535.2,286047002.4,N,1.2
1503883555.1,286046999.8,N,1.2
1503883556.0,286046999.8,N,1.2
1503883575.8,286046999.7,N,1.2
1503883595.6,286047002.4,N,1.2
1503883615.5,286047000.2,N,1.2
1503883635.3,286047002.4,N,1.2
1503883655.1,286047000.9,N,1.2
1503883675.9,286047000.9,N,1.2
1503883695.7,286047001.1,N,1.2
1503883715.6,286047000.0,N,1.2
1503883735.4,286046999.8,N,1.2
1503883755.2,286047000.6,N,1.2
1503883775.1,286046999.9,N,1.2
1503883776.0,286046999.9,N,1.2
1503883795.8,286047000.2,N,1.2
1503883815.6,286047000.1,N,1.2
1503883835.5,286046999.7,N,1.2
1503883855.3,286047001.9,N,1.2
1503883875.1,286047002.7,N,1.3
1503883895.9,286047002.3,N,1.2
1503883915.7,286046999.8,N,1.2
1503883935.5,286047000.1,N,1.1
1503883955.4,286047000.2,N,1.1
1503883975.2,286046999.9,N,1.1
1503883995.0,286046999.8,N,1.1
1503883995.9,286046999.8,N,1.0
1503884015.8,286047000.1,N,1.0
1503884035.6,286047002.8,N,1.1
1503884055.4,286047002.6,N,1.1
1503884075.3,286046999.8,N,1.1
1503884095.1,286047002.2,N,1.1
1503884115.8,286047001.6,N,1.1
1503884135.7,286047002.2,N,1.1
1503884155.5,286047002.2,N,1.1
1503884175.4,286047002.0,N,1.1
1503884195.2,286047001.7,N,1.1
1503884215.0,286047001.6,N,1.1
1503884215.9,286047001.6,N,1.1
1503884235.8,286047004.0,Y,0.0
1503884255.6,286046999.8,P,0.6
1503884275.4,286047001.9,P,0.9
1503884295.3,286047001.8,N,0.8
1503884315.1,286047002.8,Y,0.0
1503884335.8,286047000.6,P,0.3
1503884355.7,286047000.6,N,0.2
1503884375.5,286046998.5,P,1.0
1503884395.3,286046998.6,N,1.1
1503884415.2,286047000.6,N,1.0
1503884435.0,286047000.3,N,1.0
1503884435.9,286047000.3,N,0.9
1503884455.7,286047000.5,N,0.9
1503884475.6,286047000.0,N,0.8
1503884495.4,286046998.1,N,1.0
1503884515.2,286047001.2,N,1.0
1503884535.1,286047000.8,N,1.0
1503884536.0,286047000.8,N,1.0
1503884555.8,286047001.1,N,1.0
1503884575.7,286047000.4,N,0.9
1503884595.5,286047001.0,N,0.9
1503884615.3,286047001.1,N,0.9
1503884635.2,286047000.0,N,0.9
1503884655.9,286047000.1,N,0.9
1503884675.7,286047002.7,Y,0.0
1503884695.6,286047002.7,P,1.2
1503884715.4,286047000.2,N,1.2
1503884735.2,286047000.7,N,1.0
1503884755.1,286047001.1,N,0.9
1503884756.0,286047001.1,N,0.8
1503884775.8,286047001.1,N,0.8
1503884795.6,286047001.2,N,0.7
1503884815.5,286046998.7,N,1.0
1503884835.3,286046998.9,N,1.1
1503884855.1,286046998.2,N,1.3
1503884875.9,286046998.1,N,1.4
1503884895.7,286047001.0,N,1.3
1503884915.5,286047000.9,N,1.3
1503884935.4,286047000.7,N,1.2
1503884955.2,286047000.7,N,1.2
1503884975.0,286047000.3,N,1.2
1503884976.0,286047000.3,N,1.1
1503884995.8,286047000.7,N,1.1
1503885015.6,286046999.9,N,1.1
1503885035.5,286047000.6,N,1.1
1503885055.3,286047001.1,N,1.1
1503885075.1,286047000.0,N,1.0
1503885095.9,286047000.8,N,1.0
1503885115.7,286047000.9,N,1.0
1503885135.5,286047000.0,N,1.0
1503885155.4,286046999.8,N,1.0
1503885175.2,286047000.1,N,1.0
1503885195.0,286047000.8,N,0.9
1503885195.9,286047000.8,N,0.9
1503885215.8,286046998.1,N,1.0
1503885235.6,286047000.5,N,0.9
1503885255.4,286046999.9,N,0.9
1503885275.3,286047001.0,N,0.9
1503885295.1,286046998.2,N,1.0
1503885296.0,286046998.2,N,1.0
1503885315.8,286047000.7,N,1.0
1503885335.7,286046999.8,N,1.0
1503885355.5,286047002.6,N,1.1
1503885375.3,286047002.6,N,1.1
1503885395.2,286047001.3,N,1.1
1503885415.9,286047001.7,N,1.0
1503885435.7,286047001.3,N,1.0
1503885455.6,286047004.4,Y,0.0
1503885475.4,286047001.9,P,0.7
1503885495.2,286047002.5,P,0.8
1503885515.1,286047001.7,N,0.7
1503885516.0,286047001.7,N,0.7
1503885535.8,286047004.1,Y,0.0
1503885555.6,286047002.6,P,0.5
1503885575.5,286047002.6,P,0.4
1503885595.3,286047002.8,P,0.4
